sat.trackr.live / text

‹ back to catalog

2024-105A

NORAD 59917 · 2024-105A

PAYLOAD ACTIVE UNKNOWN

§ Identity

Operator
Country
PRC
Launch date
2024-05-30
Launch site
JSC
Launch vehicle
Mass (kg)
RCS (m²)

External: N2YO · Heavens-Above · Gunter

§ Orbital elements

Epoch: 2026-09-23T00:13:04.164672Z

Period
94.89 min
Inclination
97.5831°
Eccentricity
0.0011670
Mean motion
15.17519726 rev/d
Perigee alt
505.3 km
Apogee alt
521.4 km
Semi-major
6,891.5 km
B*
9.0828e-5
RAAN
281.3568°
Arg perigee
246.4162°
Mean anomaly
113.5846°
Rev number
12,786

§ Raw data

2024-105A1 59917U 24105A   26266.00907598  .00001754  00000+0  90828-4 0  99902 59917  97.5831 281.3568 0011670 246.4162 113.5846 15.17519726127865

JSON: /api/v1/satellites/59917 · /tle

For live sub-satellite position, see the globe view (requires WebGL).

§ Visibility from observer

Set your observer location to see the next 7 days of passes ≥ 10°. The values pass through the URL so the page stays shareable.

No JS? Fill the form by hand. The geolocation button needs JavaScript.

§ Radio — SatNOGS DB

ModeDescriptionDownlinkUplink
FM Mode U - Transmitter 401.205 MHz
FM Telemetry 400.600 MHz

2 transmitters · refreshed weekly from db.satnogs.org